sat.trackr.live / text

‹ back to catalog

MBZ-SAT

NORAD 62626 · 2025-009T

PAYLOAD ACTIVE UNKNOWN

§ Identity

Operator
Country
UAE
Launch date
2025-01-14
Launch site
AFWTR
Launch vehicle
Mass (kg)
RCS (m²)

External: N2YO · Heavens-Above · Gunter

§ Orbital elements

Epoch: 2026-09-22T17:40:13.442880Z

Period
94.87 min
Inclination
97.3870°
Eccentricity
0.0003499
Mean motion
15.17822674 rev/d
Perigee alt
510.0 km
Apogee alt
514.8 km
Semi-major
6,890.6 km
B*
5.5066e-5
RAAN
341.7675°
Arg perigee
17.1070°
Mean anomaly
343.0281°
Rev number
9,348

§ Raw data

MBZ-SAT1 62626U 25009T   26265.73626670  .00001048  00000+0  55066-4 0  99942 62626  97.3870 341.7675 0003499  17.1070 343.0281 15.17822674 93480

JSON: /api/v1/satellites/62626 · /tle

For live sub-satellite position, see the globe view (requires WebGL).

§ Visibility from observer

Set your observer location to see the next 7 days of passes ≥ 10°. The values pass through the URL so the page stays shareable.

No JS? Fill the form by hand. The geolocation button needs JavaScript.

§ Radio — SatNOGS DB

ModeDescriptionDownlinkUplink
FM S-band telemetry 2.228 GHz

1 transmitter · refreshed weekly from db.satnogs.org